GW1509 Weather Reports


Display with metric or nautical units.
time (UTC)temp
F
wind
direction
speed
MPH
gust
MPH
rain 1hr
in
rain 24hr
in
rain mn
in
humidity
%
barometer
mb
20260509123049 67 0 0.0 3.0 0.00 0.00 0.00 95 1014.1
20260509121601 66 0 0.0 2.0 0.00 0.00 0.00 96 1013.9
20260509120057 65 0 0.0 0.0 0.00 0.00 0.00 96 1013.8
20260509114555 65 0 0.0 0.0 0.00 0.00 0.00 96 1013.5
20260509113055 63 0 0.0 0.0 0.00 0.00 0.00 95 1013.3
20260509111603 62 0 0.0 0.0 0.00 0.00 0.00 95 1013.1
20260509110050 62 0 0.0 1.0 0.00 0.00 0.00 95 1013.1
20260509104552 61 0 0.0 0.0 0.00 0.00 0.00 95 1012.7
20260509103100 62 0 0.0 0.0 0.00 0.00 0.00 95 1012.7
20260509101553 63 0 0.0 0.0 0.00 0.00 0.00 95 1012.6
20260509100052 63 0 0.0 0.0 0.00 0.00 0.00 94 1012.7
20260509094551 63 0 0.0 2.0 0.00 0.00 0.00 95 1012.6
20260509093053 63 0 0.0 1.0 0.00 0.00 0.00 95 1012.7
20260509091552 63 0 0.0 1.0 0.00 0.00 0.00 95 1012.7
20260509090104 63 0 0.0 0.0 0.00 0.00 0.00 95 1013.0
20260509084548 64 0 0.0 2.0 0.00 0.00 0.00 94 1013.0
20260509083058 64 0 0.0 0.0 0.00 0.00 0.00 95 1013.5
20260509081551 64 0 0.0 2.0 0.00 0.00 0.00 95 1013.2
20260509080058 64 0 0.0 2.0 0.00 0.00 0.00 94 1012.8
20260509074552 64 0 0.0 2.0 0.00 0.00 0.00 94 1013.3
20260509073049 64 28 1.0 3.0 0.00 0.00 0.00 95 1013.5
20260509071550 64 325 0.0 1.0 0.00 0.00 0.00 94 1013.1
20260509070053 63 0 0.0 1.0 0.00 0.00 0.00 94 1012.5
20260509064554 64 200 1.0 3.0 0.00 0.00 0.00 94 1013.6
20260509063056 64 0 0.0 1.0 0.00 0.00 0.00 94 1013.6
20260509061551 64 0 1.0 2.0 0.00 0.00 0.00 94 1014.0
20260509060100 63 304 0.0 2.0 0.00 0.00 0.00 94 1013.7
20260509054548 63 0 0.0 1.0 0.00 0.00 0.00 93 1014.5
20260509053127 64 0 0.0 1.0 0.00 0.00 0.00 94 1014.6
20260509051549 64 0 0.0 2.0 0.00 0.00 0.00 94 1014.8
20260509050052 64 24 0.0 2.0 0.00 0.00 0.00 94 1015.1
20260509044553 64 0 0.0 2.0 0.00 0.00 0.00 93 1015.4
20260509043104 64 29 0.0 2.0 0.00 0.00 0.00 93 1015.1
20260509041601 63 0 0.0 0.0 0.00 0.00 0.00 92 1014.7
20260509034603 63 0 0.0 0.0 0.00 0.00 0.00 91 1015.8
20260509033049 63 0 0.0 0.0 0.00 0.00 0.00 91 1016.1
20260509031603 64 0 0.0 0.0 0.00 0.00 0.00 91 1016.0
20260509030056 64 0 0.0 0.0 0.00 0.00 0.00 90 1016.0
20260509024552 64 0 0.0 0.0 0.00 0.00 0.00 89 1016.3
20260509023057 64 0 0.0 1.0 0.00 0.00 0.00 88 1016.5
20260509021552 64 281 0.0 2.0 0.00 0.00 0.00 88 1015.9
20260509020055 65 0 0.0 1.0 0.00 0.00 0.00 87 1015.6
20260509014600 65 0 0.0 0.0 0.00 0.00 0.00 87 1015.8
20260509013054 65 0 0.0 0.0 0.00 0.00 0.00 86 1015.5
20260509011552 65 0 0.0 0.0 0.00 0.00 0.00 84 1015.5
20260509010055 66 0 0.0 0.0 0.00 0.00 0.00 84 1015.5
20260509004600 66 0 0.0 4.0 0.00 0.00 0.00 83 1015.5
20260509003056 66 101 0.0 2.0 0.00 0.00 0.00 83 1015.4
20260509001552 66 0 0.0 3.0 0.00 0.00 0.00 82 1015.1
20260509000055 66 0 0.0 3.0 0.00 0.00 0.00 82 1015.0
20260508234551 66 249 0.0 2.0 0.00 0.00 0.00 81 1015.2
20260508233101 67 186 0.0 2.0 0.00 0.00 0.00 80 1014.9
20260508231552 67 146 1.0 5.0 0.00 0.00 0.00 80 1015.0
20260508230058 67 74 0.0 6.0 0.00 0.00 0.00 80 1015.1
20260508224550 67 144 0.0 5.0 0.00 0.00 0.00 79 1014.9
20260508223051 67 329 0.0 5.0 0.00 0.00 0.00 78 1014.9
20260508221552 67 166 1.0 6.0 0.00 0.00 0.00 77 1014.9
20260508220047 68 218 1.0 9.0 0.00 0.00 0.00 76 1014.9
20260508214551 68 111 2.0 6.0 0.00 0.00 0.00 76 1014.9
20260508213055 68 153 3.0 7.0 0.00 0.00 0.00 75 1014.9
20260508211556 68 94 1.0 8.0 0.00 0.00 0.00 74 1015.5
20260508210053 68 157 2.0 6.0 0.00 0.00 0.00 73 1015.1
20260508204555 68 182 3.0 8.0 0.00 0.00 0.00 72 1015.2
20260508203059 69 113 2.0 9.0 0.00 0.00 0.00 72 1014.8
20260508201558 69 163 4.0 9.0 0.00 0.00 0.00 69 1015.0
20260508200058 69 165 2.0 10.0 0.00 0.00 0.00 70 1015.4
20260508194557 70 144 5.0 10.0 0.00 0.00 0.00 68 1015.7
20260508193058 70 185 5.0 13.0 0.00 0.00 0.00 65 1015.7
20260508191558 71 186 5.0 11.0 0.00 0.00 0.00 63 1015.8
20260508190054 72 217 5.0 12.0 0.00 0.00 0.00 63 1015.9
20260508184550 72 185 3.0 12.0 0.00 0.00 0.00 64 1016.0
20260508183057 72 199 5.0 12.0 0.00 0.00 0.00 62 1016.1
20260508181554 71 158 4.0 13.0 0.00 0.00 0.00 61 1016.3
20260508180056 72 205 2.0 9.0 0.00 0.00 0.00 60 1016.2
20260508174553 72 223 3.0 9.0 0.00 0.00 0.00 62 1016.4
20260508173051 72 163 4.0 12.0 0.00 0.00 0.00 59 1016.5
20260508171605 72 143 4.0 14.0 0.00 0.00 0.00 60 1016.5
20260508170059 72 198 4.0 10.0 0.00 0.00 0.00 57 1016.8
20260508164555 72 240 4.0 11.0 0.00 0.00 0.00 57 1016.5
20260508163051 72 68 2.0 6.0 0.00 0.00 0.00 58 1016.8
20260508161559 71 328 1.0 8.0 0.00 0.00 0.00 58 1017.1
20260508160054 71 240 1.0 7.0 0.00 0.00 0.00 59 1017.5
20260508154551 69 105 3.0 7.0 0.00 0.00 0.00 60 1017.7
20260508153051 68 79 2.0 9.0 0.00 0.00 0.00 61 1017.8
20260508151556 68 104 2.0 12.0 0.00 0.00 0.00 61 1017.6
20260508150055 68 149 3.0 9.0 0.00 0.00 0.00 65 1017.6
20260508144552 67 96 2.0 7.0 0.00 0.00 0.00 66 1017.6
20260508143050 65 78 3.0 9.0 0.00 0.00 0.00 69 1017.5
20260508141554 64 0 2.0 9.0 0.00 0.00 0.00 71 1017.4
20260508134601 64 143 3.0 9.0 0.00 0.00 0.00 72 1017.2
20260508133100 64 34 2.0 10.0 0.00 0.00 0.00 74 1016.9
20260508131600 63 123 2.0 10.0 0.00 0.00 0.00 75 1016.9
20260508130110 63 134 2.0 9.0 0.00 0.00 0.00 78 1016.6
20260508124555 63 148 3.0 9.0 0.00 0.00 0.00 79 1016.4